Location: Boda
(47.1872°N, 9.5454°E)
Time: 16:18:20
(UTC+00:00)

CZ-2D R/B - Pass Details

Date: 14 May 2021
Orbit: 791 x 845 km, 98.7° (Epoch: 15 June)

Event Time Altitude Azimuth Distance (km) Brightness Sun altitude
Rises 02:59:34 0° 360° (N) 3,394 5.9 -7.5°
Reaches altitude 10° 03:03:12 10° 335° (NNW) 2,444 4.8 -7.1°
Maximum altitude 03:05:40 13° 307° (NW) 2,201 4.2 -6.7°
Drops below altitude 10° 03:08:07 10° 280° (W) 2,421 4.2 -6.4°
Enters shadow 03:10:28 - 261° (W) 2,969 4.5 -6.1°
